Weather History for Cedar Rapids, IA

Change the Weather History Date:

Sunday, December 9, 2012

  Actual Average Record
Temperature  
Mean Temperature 30 °F 25 °F  
Max Temperature 37 °F 34 °F 62 °F (1946)
Min Temperature 23 °F 17 °F -17 °F (1958)
Degree Days  
Heating Degree Days 35 40  
Month to date heating degree days 218 343  
Since 1 July heating degree days 1811 1789  
Cooling Degree Days 0 0  
Month to date cooling degree days 0 0  
Year to date cooling degree days 1052 748  
Moisture  
Dew Point 31 °F    
Average Humidity 91    
Maximum Humidity 100    
Minimum Humidity 81    
Precipitation  
Precipitation 0.05 in 0.05 in 0.60 in (2003)
Month to date precipitation 0.06 0.51  
Year to date precipitation 23.08 33.70  
Sea Level Pressure  
Sea Level Pressure 29.87 in    
Wind  
Wind Speed 12 mph (ENE)    
Max Wind Speed 26 mph    
Max Gust Speed 31 mph    
Visibility 5 miles    
Events Rain    
T = Trace of Precipitation, MM = Missing Value Source: NWS Daily Summary

Daily Weather History Graph

Daily Weather History Graph

Search for Another Location

Airport:

Trip Planner

Search our weather history database for the weather conditions in past years. The results will help you decide how hot, cold, wet, or windy it might be!

Date:

Astronomy

Dec. 09, 2012 Rise Set
Actual Time 7:23 AM CST 4:35 PM CST
Civil Twilight 6:51 AM CST 5:07 PM CST
Nautical Twilight 6:16 AM CST 5:42 PM CST
Astronomical Twilight 5:42 AM CST 6:15 PM CST
Moon 2:53 AM CST (12/9) 1:45 PM CST (12/9)
Length of Visible Light 10h 15m
Length of Day
9h 12m
Waning Crescent, 18% of the Moon is Illuminated
Dec 9
Waning Crescent
Dec 13
New
Dec 19
First Quarter
Dec 28
Full
Jan 4
Last Quarter

Hourly Weather History & Observations

Time (CST) Temp. Windchill Dew Point Humidity Pressure Visibility Wind Dir Wind Speed Gust Speed Precip Events Conditions
12:52 AM 34.0 °F 28.8 °F 32.0 °F 92% 29.99 in 7.0 mi East 5.8 mph - N/A   Overcast
1:08 AM 35.6 °F 29.9 °F 33.8 °F 93% 29.96 in 8.0 mi East 6.9 mph - N/A   Overcast
1:52 AM 36.0 °F 28.5 °F 33.1 °F 89% 29.96 in 7.0 mi East 10.4 mph - N/A   Overcast
2:22 AM 35.6 °F 27.1 °F 33.8 °F 93% 29.92 in 7.0 mi ESE 12.7 mph - N/A   Overcast
2:52 AM 35.1 °F 27.4 °F 34.0 °F 96% 29.94 in 7.0 mi ESE 10.4 mph - N/A   Overcast
3:52 AM 36.0 °F 28.5 °F 34.0 °F 93% 29.94 in 7.0 mi ESE 10.4 mph - 0.00 in Rain Light Rain
4:52 AM 35.1 °F 28.6 °F 34.0 °F 96% 29.94 in 7.0 mi ENE 8.1 mph - 0.00 in   Overcast
5:08 AM 35.6 °F 29.2 °F 33.8 °F 93% 29.91 in 6.0 mi ENE 8.1 mph - N/A   Overcast
5:52 AM 34.0 °F 26.6 °F 34.0 °F 100% 29.93 in 5.0 mi East 9.2 mph - 0.00 in   Overcast
6:52 AM 34.0 °F 25.5 °F 34.0 °F 100% 29.91 in 4.0 mi ENE 11.5 mph - 0.00 in   Overcast
7:26 AM 33.8 °F 25.3 °F 33.8 °F 100% 29.87 in 3.0 mi ENE 11.5 mph - 0.00 in   Overcast
7:49 AM 33.8 °F 24.8 °F 33.8 °F 100% 29.86 in 3.0 mi ENE 12.7 mph - 0.01 in   Overcast
7:52 AM 34.0 °F 26.0 °F 34.0 °F 100% 29.89 in 2.5 mi ENE 10.4 mph - 0.01 in   Overcast
8:09 AM 33.8 °F 25.8 °F 33.8 °F 100% 29.87 in 1.8 mi ENE 10.4 mph - N/A   Overcast
8:52 AM 34.0 °F 26.6 °F 34.0 °F 100% 29.89 in 1.0 mi ENE 9.2 mph - 0.01 in   Drizzle
9:06 AM 33.8 °F 25.3 °F 33.8 °F 100% 29.86 in 1.0 mi ENE 11.5 mph - 0.00 in   Drizzle
9:52 AM 34.0 °F 26.6 °F 34.0 °F 100% 29.88 in 1.0 mi ENE 9.2 mph - 0.02 in   Overcast
10:52 AM 34.0 °F 28.0 °F 34.0 °F 100% 29.87 in 1.5 mi ENE 6.9 mph - 0.00 in   Overcast
11:26 AM 35.6 °F 29.2 °F 35.6 °F 100% 29.81 in 1.0 mi ENE 8.1 mph - 0.01 in   Overcast
11:52 AM 35.1 °F 30.1 °F 35.1 °F 100% 29.83 in 2.0 mi East 5.8 mph - 0.01 in   Overcast
12:52 PM 35.1 °F 31.0 °F 35.1 °F 100% 29.81 in 2.5 mi East 4.6 mph - N/A   Overcast
1:52 PM 36.0 °F - 35.1 °F 97% 29.80 in 2.5 mi Calm Calm - N/A   Overcast
2:52 PM 36.0 °F 30.3 °F 36.0 °F 100% 29.79 in 2.5 mi SW 6.9 mph - N/A   Overcast
3:49 PM 37.4 °F 30.3 °F 35.6 °F 93% 29.79 in 4.0 mi West 10.4 mph - N/A   Overcast
3:52 PM 37.0 °F 28.9 °F 36.0 °F 96% 29.81 in 5.0 mi West 12.7 mph - N/A   Overcast
4:52 PM 36.0 °F 28.0 °F 35.1 °F 97% 29.81 in 6.0 mi West 11.5 mph - N/A   Overcast
5:52 PM 32.0 °F 19.5 °F 32.0 °F 100% 29.82 in 3.0 mi West 21.9 mph 29.9 mph N/A   Overcast
6:40 PM 30.2 °F 19.8 °F 28.4 °F 93% 29.80 in 9.0 mi WNW 13.8 mph - N/A   Overcast
6:52 PM 30.0 °F 17.2 °F 27.0 °F 88% 29.83 in 10.0 mi WNW 20.7 mph 28.8 mph N/A   Overcast
7:05 PM 28.4 °F 15.1 °F 24.8 °F 86% 29.80 in 10.0 mi WNW 20.7 mph 26.5 mph N/A   Overcast
7:52 PM 27.0 °F 13.2 °F 24.1 °F 89% 29.85 in 10.0 mi West 20.7 mph 27.6 mph N/A   Overcast
8:52 PM 26.1 °F 12.3 °F 21.9 °F 84% 29.85 in 9.0 mi West 19.6 mph - N/A   Overcast
9:39 PM 24.8 °F 10.7 °F 21.2 °F 86% 29.83 in 9.0 mi West 19.6 mph - N/A   Overcast
9:52 PM 24.1 °F 10.1 °F 21.0 °F 88% 29.86 in 10.0 mi West 18.4 mph - N/A   Overcast
10:52 PM 25.0 °F 11.3 °F 21.0 °F 85% 29.86 in 10.0 mi West 18.4 mph - N/A   Overcast
11:52 PM 23.0 °F 6.9 °F 19.9 °F 88% 29.86 in 10.0 mi West 24.2 mph 31.1 mph N/A   Overcast